Location: Chuathbaluk
(61.5726°N, 159.2454°W)
Time: 13:18:21
(UTC+00:00)

NUDT-PHONESAT - Pass Details

Date: 26 January 2021
Orbit: 480 x 498 km, 97.4° (Epoch: 01 March)

Event Time Altitude Azimuth Distance (km) Brightness Sun altitude
Rises 17:38:08 0° 17° (NNE) 2,612 ? -10.6°
Reaches altitude 10° 17:40:15 10° 19° (NNE) 1,722 ? -10.4°
Maximum altitude 17:43:57 73° 105° (ESE) 529 ? -10.0°
Drops below altitude 10° 17:47:37 10° 191° (S) 1,703 ? -9.6°
Sets 17:49:42 0° 193° (SSW) 2,580 ? -9.3°
